COOK73 KUIN-CYBX

Flight info

Callsign COOK73
Flight time N/A
Altitude 35000
Route NEENS DCT JOT J87 OBK J547 FNT Q824 LETAK Q848 KISUK Q997 BOKLU Q941 AGLUK Q921 IMORI Q910 TABRU
Aircraft C25C/M-SDE2E3FGHRWXY/LB1

Departure

Time N/A
Airport Quincy Regional Airport Baldwin Field (KUIN)

Arrival

Time 2026-04-20 15:52
Airport Lourdes-de-Blanc-Sablon Airport (CYBX)
Time Latitude Longitude Altitude Speed Heading
2026-04-20 14:15 46.66430 -71.77471 35632 ft 453 kts 71°
2026-04-20 14:15 46.67613 -71.73203 35508 ft 456 kts 71°
2026-04-20 14:15 46.68803 -71.68895 35387 ft 459 kts 71°
2026-04-20 14:16 46.70155 -71.64643 35266 ft 465 kts 63°
2026-04-20 14:16 46.71893 -71.60647 35179 ft 468 kts 55°
2026-04-20 14:16 46.76134 -71.53448 35180 ft 468 kts 50°
2026-04-20 14:17 46.80616 -71.46594 35180 ft 467 kts 42°
2026-04-20 14:17 46.85421 -71.40221 35181 ft 466 kts 43°
2026-04-20 14:18 46.90184 -71.33891 35177 ft 465 kts 43°
2026-04-20 14:18 46.94972 -71.27516 35164 ft 465 kts 43°
2026-04-20 14:19 46.99750 -71.21132 35153 ft 465 kts 43°
2026-04-20 14:19 47.04527 -71.14739 35136 ft 465 kts 43°
2026-04-20 14:20 47.09300 -71.08330 35124 ft 465 kts 43°
2026-04-20 14:20 47.13898 -71.01650 35119 ft 465 kts 46°
2026-04-20 14:21 47.18487 -70.94942 35112 ft 465 kts 46°
2026-04-20 14:21 47.23069 -70.88213 35100 ft 465 kts 46°
2026-04-20 14:22 47.27617 -70.81520 35092 ft 466 kts 46°
2026-04-20 14:22 47.32195 -70.74766 35082 ft 466 kts 46°
2026-04-20 14:23 47.36771 -70.67995 35083 ft 466 kts 46°
2026-04-20 14:23 47.41351 -70.61203 35084 ft 466 kts 47°
2026-04-20 14:24 47.45927 -70.54397 35093 ft 466 kts 47°
2026-04-20 14:24 47.50501 -70.47675 35097 ft 467 kts 43°
2026-04-20 14:25 47.55362 -70.41277 35110 ft 468 kts 43°
2026-04-20 14:25 47.60202 -70.34817 35118 ft 468 kts 43°
2026-04-20 14:26 47.65055 -70.28372 35122 ft 469 kts 43°
2026-04-20 14:26 47.69902 -70.21891 35123 ft 469 kts 43°
2026-04-20 14:27 47.74755 -70.15397 35125 ft 470 kts 44°
2026-04-20 14:27 47.79612 -70.08877 35130 ft 470 kts 44°
2026-04-20 14:28 47.84474 -70.02335 35127 ft 471 kts 44°
2026-04-20 14:28 47.89328 -69.95784 35125 ft 471 kts 44°
2026-04-20 14:29 47.94181 -69.89219 35122 ft 471 kts 44°
2026-04-20 14:29 47.99013 -69.82664 35113 ft 472 kts 44°
2026-04-20 14:30 48.03872 -69.76055 35115 ft 472 kts 44°
2026-04-20 14:30 48.08734 -69.69426 35111 ft 473 kts 44°
2026-04-20 14:31 48.13595 -69.62778 35110 ft 473 kts 44°
2026-04-20 14:31 48.18461 -69.56105 35108 ft 474 kts 44°
2026-04-20 14:32 48.23322 -69.49423 35106 ft 474 kts 44°
2026-04-20 14:32 48.28147 -69.42773 35102 ft 474 kts 44°
2026-04-20 14:33 48.33006 -69.36057 35100 ft 474 kts 45°
2026-04-20 14:33 48.37861 -69.29328 35101 ft 475 kts 45°
2026-04-20 14:34 48.41897 -69.23721 35101 ft 475 kts 45°
2026-04-20 14:34 48.46755 -69.16953 35102 ft 475 kts 45°
2026-04-20 14:35 48.52396 -69.09074 35097 ft 476 kts 45°
2026-04-20 14:35 48.56459 -69.03382 35098 ft 476 kts 45°
2026-04-20 14:36 48.61313 -68.96566 35094 ft 476 kts 45°
2026-04-20 14:36 48.66132 -68.89778 35092 ft 476 kts 45°
2026-04-20 14:37 48.70981 -68.82930 35093 ft 477 kts 45°
2026-04-20 14:37 48.75831 -68.76062 35089 ft 477 kts 45°
2026-04-20 14:38 48.80679 -68.69181 35085 ft 477 kts 45°
2026-04-20 14:38 48.85528 -68.62276 35086 ft 478 kts 45°
2026-04-20 14:39 48.90376 -68.55352 35079 ft 478 kts 45°
2026-04-20 14:39 48.95216 -68.48421 35073 ft 478 kts 45°
2026-04-20 14:40 49.00028 -68.41513 35066 ft 478 kts 46°
2026-04-20 14:40 49.04869 -68.34544 35067 ft 478 kts 46°
2026-04-20 14:41 49.09701 -68.27565 35065 ft 478 kts 46°
2026-04-20 14:41 49.14440 -68.20450 35068 ft 476 kts 52°
2026-04-20 14:42 49.18838 -68.12887 35064 ft 476 kts 51°
2026-04-20 14:42 49.23247 -68.05333 35063 ft 476 kts 52°
2026-04-20 14:43 49.27641 -67.97745 35062 ft 476 kts 52°
2026-04-20 14:43 49.32012 -67.90204 35059 ft 476 kts 52°
2026-04-20 14:44 49.36393 -67.82606 35050 ft 476 kts 52°
2026-04-20 14:44 49.40778 -67.74985 35051 ft 476 kts 52°
2026-04-20 14:45 49.45147 -67.67367 35040 ft 475 kts 52°
2026-04-20 14:45 49.49518 -67.59727 35043 ft 475 kts 52°
2026-04-20 14:46 49.53881 -67.52078 35030 ft 475 kts 53°
2026-04-20 14:46 49.58235 -67.44418 35025 ft 475 kts 53°
2026-04-20 14:47 49.62556 -67.36795 35021 ft 475 kts 53°
2026-04-20 14:48 49.69080 -67.25245 35014 ft 476 kts 53°
2026-04-20 14:48 49.73430 -67.17517 35007 ft 476 kts 53°
2026-04-20 14:49 49.77776 -67.09769 35006 ft 477 kts 53°
2026-04-20 14:49 49.82117 -67.02009 34999 ft 477 kts 54°
2026-04-20 14:50 49.86464 -66.94218 34994 ft 477 kts 54°
2026-04-20 14:50 49.90779 -66.86454 34991 ft 478 kts 54°
2026-04-20 14:51 49.95116 -66.78631 34982 ft 478 kts 54°
2026-04-20 14:51 49.99448 -66.70795 34979 ft 478 kts 54°
2026-04-20 14:52 50.03777 -66.62942 34962 ft 478 kts 54°
2026-04-20 14:52 50.08110 -66.55055 34958 ft 478 kts 55°
2026-04-20 14:53 50.12401 -66.47219 34952 ft 479 kts 55°
2026-04-20 14:53 50.16720 -66.39311 34952 ft 479 kts 55°
2026-04-20 14:54 50.20968 -66.31306 34955 ft 475 kts 61°
2026-04-20 14:54 50.24108 -66.22410 34955 ft 461 kts 76°
2026-04-20 14:55 50.26080 -66.12991 34953 ft 455 kts 82°
2026-04-20 14:55 50.27965 -66.03535 34944 ft 456 kts 82°
2026-04-20 14:56 50.29821 -65.94120 34940 ft 456 kts 83°
2026-04-20 14:56 50.31691 -65.84608 34926 ft 458 kts 83°
2026-04-20 14:57 50.33557 -65.75064 34911 ft 459 kts 83°
2026-04-20 14:57 50.35419 -65.65503 34902 ft 460 kts 83°
2026-04-20 14:58 50.37278 -65.55903 34897 ft 461 kts 83°
2026-04-20 14:58 50.39130 -65.46291 34896 ft 461 kts 84°
2026-04-20 14:59 50.40978 -65.36651 34890 ft 462 kts 84°
2026-04-20 14:59 50.42823 -65.26977 34884 ft 463 kts 84°
2026-04-20 15:00 50.44649 -65.17344 34876 ft 463 kts 84°
2026-04-20 15:00 50.46482 -65.07647 34866 ft 463 kts 84°
2026-04-20 15:01 50.48302 -64.97941 34851 ft 464 kts 85°
2026-04-20 15:01 50.50120 -64.88217 34847 ft 464 kts 85°
2026-04-20 15:02 50.51930 -64.78479 34832 ft 464 kts 85°
2026-04-20 15:02 50.53734 -64.68715 34827 ft 465 kts 85°
2026-04-20 15:03 50.55532 -64.58943 34822 ft 465 kts 86°
2026-04-20 15:03 50.57323 -64.49147 34816 ft 466 kts 86°
2026-04-20 15:04 50.59098 -64.39391 34809 ft 467 kts 86°
2026-04-20 15:04 50.60881 -64.29547 34798 ft 467 kts 86°
2026-04-20 15:05 50.62654 -64.19698 34789 ft 467 kts 87°
2026-04-20 15:05 50.64416 -64.09848 34796 ft 466 kts 87°
2026-04-20 15:06 50.66169 -64.00010 34786 ft 466 kts 88°
2026-04-20 15:06 50.67906 -63.90184 34783 ft 465 kts 88°
2026-04-20 15:07 50.69624 -63.80433 34775 ft 464 kts 88°
2026-04-20 15:07 50.71343 -63.70625 34767 ft 463 kts 88°
2026-04-20 15:08 50.73048 -63.60813 34761 ft 463 kts 89°
2026-04-20 15:08 50.74748 -63.51001 34762 ft 463 kts 89°
2026-04-20 15:09 50.76439 -63.41195 34758 ft 462 kts 89°
2026-04-20 15:09 50.78117 -63.31398 34748 ft 462 kts 89°
2026-04-20 15:10 50.79785 -63.21591 34748 ft 461 kts 89°
2026-04-20 15:10 50.81446 -63.11789 34748 ft 461 kts 89°
2026-04-20 15:11 50.83096 -63.01978 34743 ft 462 kts 89°
2026-04-20 15:11 50.84743 -62.92153 34739 ft 462 kts 89°
2026-04-20 15:12 50.86378 -62.82323 34736 ft 461 kts 89°
2026-04-20 15:12 50.87996 -62.72563 34736 ft 461 kts 90°
2026-04-20 15:13 50.89611 -62.62743 34721 ft 460 kts 90°
2026-04-20 15:13 50.91213 -62.52946 34722 ft 459 kts 90°
2026-04-20 15:14 50.92806 -62.43158 34720 ft 458 kts 90°
2026-04-20 15:14 50.94385 -62.33390 34711 ft 457 kts 90°
2026-04-20 15:15 50.95945 -62.23694 34709 ft 455 kts 90°
2026-04-20 15:15 50.97497 -62.13970 34704 ft 454 kts 90°
2026-04-20 15:16 50.99043 -62.04248 34703 ft 453 kts 90°
2026-04-20 15:16 51.00574 -61.94551 34694 ft 453 kts 90°
2026-04-20 15:17 51.02098 -61.84860 34689 ft 452 kts 90°
2026-04-20 15:17 51.03610 -61.75165 34687 ft 451 kts 90°
2026-04-20 15:18 51.05109 -61.65500 34686 ft 450 kts 90°
2026-04-20 15:18 51.06605 -61.55812 34678 ft 451 kts 90°
2026-04-20 15:19 51.08087 -61.46146 34674 ft 449 kts 90°
2026-04-20 15:19 51.09560 -61.36486 34673 ft 449 kts 90°
2026-04-20 15:20 51.11024 -61.26818 34673 ft 449 kts 90°
2026-04-20 15:20 51.12467 -61.17219 34677 ft 449 kts 90°
2026-04-20 15:21 51.13917 -61.07547 34679 ft 449 kts 90°
2026-04-20 15:21 51.15356 -60.97864 34677 ft 449 kts 90°
2026-04-20 15:22 51.16791 -60.88168 34680 ft 448 kts 90°
2026-04-20 15:22 51.18211 -60.78491 34677 ft 448 kts 90°
2026-04-20 15:23 51.19626 -60.68808 34673 ft 448 kts 90°
2026-04-20 15:23 51.20794 -60.60753 34678 ft 448 kts 89°
2026-04-20 15:24 51.22418 -60.49484 34670 ft 449 kts 89°
2026-04-20 15:24 51.23811 -60.39768 34660 ft 449 kts 89°
2026-04-20 15:25 51.24961 -60.31700 34656 ft 448 kts 89°
2026-04-20 15:25 51.26333 -60.21991 34654 ft 448 kts 89°
2026-04-20 15:26 51.27704 -60.12264 34646 ft 448 kts 89°
2026-04-20 15:26 51.29062 -60.02538 34646 ft 448 kts 89°
2026-04-20 15:27 51.30406 -59.92855 34643 ft 448 kts 89°
2026-04-20 15:27 51.31748 -59.83132 34641 ft 448 kts 89°
2026-04-20 15:28 51.33080 -59.73403 34641 ft 448 kts 89°
2026-04-20 15:28 51.34406 -59.63656 34141 ft 448 kts 89°
2026-04-20 15:28 51.35069 -59.58805 33611 ft 442 kts 89°
2026-04-20 15:29 51.35716 -59.54026 33016 ft 437 kts 89°
2026-04-20 15:29 51.36349 -59.49300 32436 ft 433 kts 90°
2026-04-20 15:29 51.36976 -59.44602 31863 ft 430 kts 90°
2026-04-20 15:29 51.37598 -59.39944 31304 ft 427 kts 89°
2026-04-20 15:30 51.38218 -59.35310 30757 ft 424 kts 90°
2026-04-20 15:30 51.38830 -59.30704 30222 ft 422 kts 90°
2026-04-20 15:30 51.39435 -59.26119 29691 ft 419 kts 90°
2026-04-20 15:30 51.40037 -59.21556 29077 ft 417 kts 90°
2026-04-20 15:31 51.40635 -59.17023 28478 ft 415 kts 90°
2026-04-20 15:31 51.41219 -59.12557 27894 ft 413 kts 89°
2026-04-20 15:31 51.41807 -59.08068 27323 ft 411 kts 89°
2026-04-20 15:31 51.42387 -59.03600 26764 ft 409 kts 89°
2026-04-20 15:32 51.42968 -58.99152 26213 ft 407 kts 89°
2026-04-20 15:32 51.43538 -58.94733 25669 ft 404 kts 89°
2026-04-20 15:32 51.44107 -58.90331 25145 ft 402 kts 89°
2026-04-20 15:32 51.44668 -58.85957 24615 ft 399 kts 89°
2026-04-20 15:33 51.45228 -58.81609 24101 ft 396 kts 89°
2026-04-20 15:33 51.45781 -58.77290 23607 ft 393 kts 89°
2026-04-20 15:33 51.46325 -58.73016 23079 ft 390 kts 89°
2026-04-20 15:33 51.46863 -58.68761 22491 ft 388 kts 89°
2026-04-20 15:34 51.47401 -58.64525 21909 ft 386 kts 89°
2026-04-20 15:34 51.47930 -58.60324 21344 ft 384 kts 89°
2026-04-20 15:34 51.48461 -58.56134 20787 ft 382 kts 89°
2026-04-20 15:34 51.48981 -58.51969 20239 ft 380 kts 89°
2026-04-20 15:35 51.49495 -58.47870 19710 ft 378 kts 88°
2026-04-20 15:35 51.50009 -58.43736 19184 ft 377 kts 88°
2026-04-20 15:35 51.50524 -58.39616 18665 ft 375 kts 88°
2026-04-20 15:35 51.51032 -58.35503 18157 ft 375 kts 88°
2026-04-20 15:36 51.51539 -58.31397 17599 ft 374 kts 88°
2026-04-20 15:36 51.52045 -58.27317 17120 ft 370 kts 88°
2026-04-20 15:36 51.52534 -58.23333 16644 ft 367 kts 88°
2026-04-20 15:36 51.53026 -58.19315 16163 ft 366 kts 88°
2026-04-20 15:37 51.53516 -58.15309 15683 ft 364 kts 88°
2026-04-20 15:37 51.53999 -58.11324 15202 ft 363 kts 88°
2026-04-20 15:37 51.54480 -58.07343 14722 ft 363 kts 88°
2026-04-20 15:37 51.54965 -58.03366 14250 ft 362 kts 88°
2026-04-20 15:38 51.55445 -57.99392 13775 ft 362 kts 88°
2026-04-20 15:38 51.55921 -57.95429 13276 ft 357 kts 88°
2026-04-20 15:38 51.56388 -57.91596 12807 ft 342 kts 88°
2026-04-20 15:38 51.56834 -57.87893 12358 ft 332 kts 88°
2026-04-20 15:39 51.57257 -57.84299 11922 ft 323 kts 89°
2026-04-20 15:39 51.57675 -57.80779 11505 ft 318 kts 88°
2026-04-20 15:39 51.58083 -57.77318 11083 ft 313 kts 88°
2026-04-20 15:39 51.58491 -57.73900 10677 ft 309 kts 88°
2026-04-20 15:40 51.58881 -57.70564 10280 ft 305 kts 88°
2026-04-20 15:40 51.59274 -57.67281 9903 ft 294 kts 88°
2026-04-20 15:40 51.59646 -57.64103 9526 ft 285 kts 89°
2026-04-20 15:40 51.60008 -57.61012 9159 ft 277 kts 89°
2026-04-20 15:41 51.60359 -57.57990 8792 ft 272 kts 89°
2026-04-20 15:41 51.60704 -57.55015 8436 ft 269 kts 89°
2026-04-20 15:41 51.61044 -57.52084 8092 ft 265 kts 89°
2026-04-20 15:41 51.61382 -57.49182 7753 ft 262 kts 89°
2026-04-20 15:42 51.61714 -57.46336 7417 ft 255 kts 90°
2026-04-20 15:42 51.62034 -57.43560 7090 ft 249 kts 89°
2026-04-20 15:42 51.62346 -57.40848 6782 ft 244 kts 90°
2026-04-20 15:42 51.62654 -57.38171 6465 ft 242 kts 90°
2026-04-20 15:43 51.62956 -57.35511 6148 ft 241 kts 90°
2026-04-20 15:43 51.63256 -57.32877 5819 ft 244 kts 90°
2026-04-20 15:43 51.63567 -57.30176 5489 ft 246 kts 89°
2026-04-20 15:43 51.63873 -57.27466 5164 ft 246 kts 89°
2026-04-20 15:44 51.64186 -57.24745 4839 ft 247 kts 89°
2026-04-20 15:44 51.64494 -57.22027 4514 ft 246 kts 88°
2026-04-20 15:44 51.64801 -57.19343 4192 ft 242 kts 87°
2026-04-20 15:44 51.65012 -57.16691 3860 ft 232 kts 101°
2026-04-20 15:45 51.64568 -57.14326 3569 ft 215 kts 124°
2026-04-20 15:45 51.63895 -57.12201 3285 ft 212 kts 126°
2026-04-20 15:45 51.63206 -57.10128 3012 ft 209 kts 127°
2026-04-20 15:45 51.62508 -57.08067 2739 ft 209 kts 130°
2026-04-20 15:46 51.61456 -57.06591 2465 ft 198 kts 158°
2026-04-20 15:46 51.60199 -57.06010 2412 ft 181 kts 181°
2026-04-20 15:46 51.58972 -57.06302 2411 ft 175 kts 201°
2026-04-20 15:46 51.57965 -57.07118 2394 ft 156 kts 208°
2026-04-20 15:47 51.57097 -57.07838 2390 ft 121 kts 207°
2026-04-20 15:47 51.56427 -57.08400 2372 ft 103 kts 208°
2026-04-20 15:47 51.55822 -57.08911 2367 ft 95 kts 208°
2026-04-20 15:47 51.55232 -57.09403 2320 ft 96 kts 209°
2026-04-20 15:48 51.54629 -57.09906 2253 ft 100 kts 207°
2026-04-20 15:48 51.54004 -57.10431 2174 ft 103 kts 208°
2026-04-20 15:48 51.53373 -57.10958 2093 ft 98 kts 208°
2026-04-20 15:48 51.52788 -57.11444 2003 ft 92 kts 207°
2026-04-20 15:49 51.52217 -57.11927 1894 ft 95 kts 207°
2026-04-20 15:49 51.51622 -57.12425 1758 ft 98 kts 208°
2026-04-20 15:49 51.51007 -57.12932 1618 ft 101 kts 207°
2026-04-20 15:49 51.50376 -57.13461 1474 ft 104 kts 206°
2026-04-20 15:50 51.49736 -57.14001 1309 ft 104 kts 207°
2026-04-20 15:50 51.49094 -57.14531 1166 ft 105 kts 206°
2026-04-20 15:50 51.48434 -57.15086 1005 ft 109 kts 206°
2026-04-20 15:50 51.47760 -57.15650 847 ft 110 kts 206°
2026-04-20 15:51 51.47082 -57.16216 694 ft 112 kts 206°
2026-04-20 15:51 51.46400 -57.16782 537 ft 106 kts 207°
2026-04-20 15:51 51.45807 -57.17288 381 ft 92 kts 208°
2026-04-20 15:51 51.45247 -57.17763 247 ft 91 kts 207°
2026-04-20 15:52 51.44683 -57.18209 145 ft 85 kts 209°
2026-04-20 15:52 51.44268 -57.18565 128 ft 31 kts 207°
2026-04-20 15:52 51.44184 -57.18659 125 ft 12 kts 220°
2026-04-20 15:53 51.44193 -57.18633 125 ft 8 kts 26°
2026-04-20 15:53 51.44244 -57.18589 127 ft 9 kts 29°
2026-04-20 15:53 51.44304 -57.18536 128 ft 11 kts 27°
2026-04-20 15:53 51.44373 -57.18504 126 ft 6 kts 313°
2026-04-20 15:54 51.44388 -57.18588 126 ft 10 kts 296°
2026-04-20 15:54 51.44412 -57.18667 125 ft 8 kts 296°
2026-04-20 15:54 51.44424 -57.18697 125 ft 2 kts 339°
2026-04-20 15:54 51.44433 -57.18703 125 ft 5 kts 329°
2026-04-20 15:55 51.44444 -57.18707 125 ft 0 kts 359°
2026-04-20 15:55 51.44451 -57.18705 125 ft 0 kts